Location: Unspecified
(0.0000°N, 0.0000°E)
Time: 22:59:18
(UTC+00:00)

S-56A Canister/Altair - Pass Details

Date: 02 October 2020
Orbit: 633 x 2499 km, 38.9° (Epoch: 28 October)

Event Time Altitude Azimuth Distance (km) Brightness Sun altitude
Rises 08:43:48 0° 213° (SSW) 4,117 11.1 43.5°
Reaches altitude 10° 08:46:24 10° 206° (SSW) 3,375 10.8 44.2°
Maximum altitude 08:54:51 47° 135° (SE) 2,221 11.3 46.3°
Drops below altitude 10° 09:07:00 10° 66° (ENE) 4,800 12.3 49.3°
Sets 09:11:25 0° 61° (ENE) 5,984 12.5 50.4°
